• In Latvia
  • List of Countries
  • For 7 days
  • Water Temperature
  • Satellite Maps
  • Weather Map
  • Weather Widgets
  • user-avatar
    Login

    Hourly Weather Andora

    Today, 17 January, Tuesday

    Time Temperature Precipitation Wind Pressure Humidity
    00:00 -11°C° 0.1 mm 4 mps 620 mmHg 89%
    01:00 -12°C° 0 mm 4 mps 620 mmHg 88%
    02:00 -12°C° 0 mm 4 mps 619 mmHg 88%
    03:00 -14°C° 0 mm 4 mps 619 mmHg 87%
    04:00 -15°C° 0 mm 4 mps 619 mmHg 86%
    05:00 -16°C° 0 mm 4 mps 619 mmHg 85%
    06:00 -16°C° 0 mm 4 mps 619 mmHg 83%
    07:00 -17°C° 0 mm 5 mps 619 mmHg 80%
    08:00 -17°C° 0 mm 5 mps 620 mmHg 78%
    09:00 -15°C° 0 mm 5 mps 620 mmHg 75%
    10:00 -15°C° 0 mm 5 mps 620 mmHg 73%
    11:00 -14°C° 0 mm 5 mps 621 mmHg 71%
    12:00 -14°C° 0 mm 6 mps 621 mmHg 69%
    13:00 -13°C° 0.1 mm 5 mps 621 mmHg 70%
    14:00 -13°C° 0.1 mm 5 mps 621 mmHg 71%
    15:00 -12°C° 0.1 mm 4 mps 621 mmHg 72%
    16:00 -14°C° 0 mm 4 mps 621 mmHg 74%
    17:00 -15°C° 0 mm 4 mps 620 mmHg 77%
    18:00 -16°C° 0 mm 4 mps 620 mmHg 79%
    19:00 -16°C° 0 mm 4 mps 621 mmHg 80%
    20:00 -16°C° 0 mm 4 mps 621 mmHg 80%
    21:00 -15°C° 0 mm 3 mps 621 mmHg 80%
    22:00 -16°C° 0 mm 3 mps 621 mmHg 80%
    23:00 -16°C° 0 mm 3 mps 621 mmHg 81%

    Tomorrow, 18 January, Wednesday

    Time Temperature Precipitation Wind Pressure Humidity
    00:00 -16°C° 0 mm 3 mps 621 mmHg 81%
    01:00 -17°C° 0 mm 3 mps 621 mmHg 81%
    02:00 -17°C° 0 mm 3 mps 621 mmHg 81%
    03:00 -16°C° 0 mm 2 mps 620 mmHg 81%
    04:00 -16°C° 0 mm 2 mps 620 mmHg 81%
    05:00 -16°C° 0 mm 2 mps 620 mmHg 80%
    06:00 -16°C° 0 mm 2 mps 620 mmHg 80%
    07:00 -15°C° 0 mm 2 mps 621 mmHg 76%
    08:00 -13°C° 0 mm 2 mps 622 mmHg 73%
    09:00 -12°C° 0 mm 2 mps 623 mmHg 70%
    10:00 -8°C° 0 mm 1 mps 624 mmHg 66%
    11:00 -6°C° 0 mm 1 mps 624 mmHg 63%
    12:00 -3°C° 0 mm 1 mps 625 mmHg 60%
    13:00 -4°C° 0 mm 1 mps 625 mmHg 61%
    14:00 -4°C° 0 mm 1 mps 625 mmHg 63%
    15:00 -4°C° 0 mm 1 mps 624 mmHg 64%
    16:00 -9°C° 0 mm 1 mps 623 mmHg 72%
    17:00 -13°C° 0 mm 0 mps 621 mmHg 80%
    18:00 -17°C° 0 mm 0 mps 619 mmHg 88%
    19:00 -17°C° 0 mm 0 mps 619 mmHg 87%
    20:00 -17°C° 0 mm 0 mps 619 mmHg 87%
    21:00 -17°C° 0 mm 0 mps 620 mmHg 87%
    22:00 -17°C° 0 mm 0 mps 620 mmHg 86%
    23:00 -17°C° 0 mm 0 mps 620 mmHg 85%

    Day after tomorrow, 19 January, Thursday

    Time Temperature Precipitation Wind Pressure Humidity
    00:00 -17°C° 0 mm 0 mps 620 mmHg 84%
    01:00 -17°C° 0 mm 0 mps 620 mmHg 83%
    02:00 -17°C° 0 mm 0 mps 620 mmHg 82%
    03:00 -17°C° 0 mm 0 mps 619 mmHg 81%
    04:00 -17°C° 0 mm 0 mps 619 mmHg 81%
    05:00 -17°C° 0 mm 0 mps 619 mmHg 80%
    06:00 -17°C° 0 mm 0 mps 619 mmHg 80%
    07:00 -14°C° 0 mm 0 mps 621 mmHg 74%
    08:00 -10°C° 0 mm 1 mps 623 mmHg 68%
    09:00 -7°C° 0 mm 1 mps 625 mmHg 63%
    10:00 -6°C° 0 mm 1 mps 625 mmHg 62%
    11:00 -3°C° 0 mm 1 mps 626 mmHg 61%
    12:00 -2°C° 0 mm 1 mps 626 mmHg 61%
    13:00 -2°C° 0 mm 1 mps 626 mmHg 63%
    14:00 -2°C° 0 mm 1 mps 625 mmHg 65%
    15:00 -2°C° 0 mm 1 mps 625 mmHg 67%
    16:00 -6°C° 0 mm 1 mps 624 mmHg 74%
    17:00 -10°C° 0 mm 1 mps 622 mmHg 81%
    18:00 -13°C° 0 mm 1 mps 621 mmHg 87%
    19:00 -13°C° 0 mm 1 mps 621 mmHg 88%
    20:00 -13°C° 0 mm 1 mps 621 mmHg 88%
    21:00 -13°C° 0 mm 1 mps 621 mmHg 88%
    22:00 -13°C° 0 mm 1 mps 621 mmHg 88%
    23:00 -13°C° 0 mm 1 mps 621 mmHg 88%

    20 January, Friday

    Time Temperature Precipitation Wind Pressure Humidity
    00:00 -13°C° 0 mm 1 mps 621 mmHg 89%
    01:00 -14°C° 0 mm 2 mps 621 mmHg 88%
    02:00 -14°C° 0 mm 2 mps 621 mmHg 88%
    03:00 -14°C° 0 mm 2 mps 620 mmHg 87%
    04:00 -13°C° 0.1 mm 2 mps 621 mmHg 85%
    05:00 -9°C° 0.1 mm 1 mps 621 mmHg 83%
    06:00 -8°C° 0.1 mm 1 mps 622 mmHg 82%
    07:00 -8°C° 0.1 mm 2 mps 623 mmHg 81%
    08:00 -6°C° 0.1 mm 2 mps 623 mmHg 81%
    09:00 -5°C° 0.1 mm 2 mps 624 mmHg 81%
    10:00 -4°C° 0.3 mm 2 mps 624 mmHg 81%
    11:00 -4°C° 0.3 mm 2 mps 624 mmHg 81%
    12:00 -3°C° 0.3 mm 2 mps 624 mmHg 82%
    13:00 -3°C° 0.2 mm 2 mps 624 mmHg 83%
    14:00 -3°C° 0.2 mm 2 mps 624 mmHg 84%
    15:00 -3°C° 0.2 mm 2 mps 624 mmHg 86%
    16:00 -4°C° 0.1 mm 2 mps 623 mmHg 89%
    17:00 -6°C° 0.1 mm 2 mps 623 mmHg 92%
    18:00 -7°C° 0.1 mm 1 mps 622 mmHg 95%
    19:00 -7°C° 0.1 mm 1 mps 622 mmHg 96%
    20:00 -7°C° 0.1 mm 1 mps 622 mmHg 96%
    21:00 -8°C° 0.1 mm 1 mps 622 mmHg 96%
    22:00 -8°C° 0 mm 1 mps 621 mmHg 95%
    23:00 -9°C° 0 mm 1 mps 621 mmHg 95%

    21 January, Saturday

    Time Temperature Precipitation Wind Pressure Humidity
    00:00 -9°C° 0 mm 1 mps 621 mmHg 95%
    01:00 -9°C° 0 mm 1 mps 621 mmHg 94%
    02:00 -9°C° 0 mm 1 mps 621 mmHg 94%
    03:00 -9°C° 0 mm 1 mps 621 mmHg 93%
    04:00 -9°C° 0 mm 1 mps 621 mmHg 93%
    05:00 -9°C° 0 mm 1 mps 621 mmHg 93%
    06:00 -9°C° 0 mm 1 mps 620 mmHg 92%
    07:00 -7°C° 0 mm 1 mps 622 mmHg 89%
    08:00 -4°C° 0 mm 1 mps 623 mmHg 86%
    09:00 -2°C° 0 mm 1 mps 624 mmHg 83%
    10:00 -1°C° 0 mm 1 mps 625 mmHg 81%
    11:00 0°C° 0 mm 1 mps 625 mmHg 78%
    12:00 +1°C° 0 mm 1 mps 625 mmHg 76%
    13:00 +1°C° 0 mm 1 mps 625 mmHg 77%
    14:00 +1°C° 0 mm 1 mps 624 mmHg 78%
    15:00 +1°C° 0 mm 1 mps 624 mmHg 79%
    16:00 -2°C° 0 mm 1 mps 623 mmHg 84%
    17:00 -4°C° 0 mm 1 mps 622 mmHg 89%
    18:00 -8°C° 0 mm 1 mps 621 mmHg 95%
    19:00 -9°C° 0 mm 1 mps 620 mmHg 95%
    20:00 -9°C° 0 mm 1 mps 620 mmHg 95%
    21:00 -10°C° 0 mm 1 mps 620 mmHg 94%
    22:00 -10°C° 0 mm 1 mps 620 mmHg 94%
    23:00 -10°C° 0 mm 1 mps 620 mmHg 94%

    22 January, Sunday

    Time Temperature Precipitation Wind Pressure Humidity
    00:00 -10°C° 0 mm 1 mps 620 mmHg 93%
    01:00 -10°C° 0 mm 1 mps 620 mmHg 93%
    02:00 -9°C° 0 mm 1 mps 620 mmHg 92%
    03:00 -9°C° 0 mm 1 mps 620 mmHg 91%
    04:00 -9°C° 0 mm 1 mps 620 mmHg 91%
    05:00 -9°C° 0 mm 1 mps 620 mmHg 91%
    06:00 -9°C° 0 mm 1 mps 620 mmHg 91%
    07:00 -7°C° 0 mm 1 mps 621 mmHg 88%
    08:00 -6°C° 0 mm 1 mps 621 mmHg 85%
    09:00 -4°C° 0 mm 1 mps 622 mmHg 82%
    10:00 -3°C° 0 mm 1 mps 622 mmHg 79%
    11:00 -1°C° 0 mm 1 mps 622 mmHg 75%
    12:00 0°C° 0 mm 1 mps 623 mmHg 71%
    13:00 0°C° 0.1 mm 1 mps 622 mmHg 74%
    14:00 0°C° 0.1 mm 1 mps 622 mmHg 76%
    15:00 0°C° 0.1 mm 1 mps 621 mmHg 79%
    16:00 -1°C° 0.7 mm 1 mps 621 mmHg 84%
    17:00 -2°C° 0.7 mm 1 mps 620 mmHg 88%
    18:00 -3°C° 0.7 mm 1 mps 620 mmHg 93%
    19:00 -2°C° 1 mm 1 mps 620 mmHg 93%
    20:00 -2°C° 1 mm 1 mps 620 mmHg 94%
    21:00 -2°C° 1 mm 1 mps 619 mmHg 94%
    22:00 -1°C° 1.6 mm 1 mps 619 mmHg 94%
    23:00 -3°C° 1.6 mm 2 mps 619 mmHg 94%
    Show more